Year,Month,Day,Hour,Minute,Value (Times are PST for temperature in C)
2011,08,07,00,00,15.30
2011,08,07,00,01,15.30
2011,08,07,00,02,15.30
2011,08,07,00,03,15.30
2011,08,07,00,04,15.30
2011,08,07,00,05,15.30
2011,08,07,00,06,15.30
2011,08,07,00,07,15.30
2011,08,07,00,08,15.30
2011,08,07,00,09,15.30
2011,08,07,00,10,15.40
2011,08,07,00,11,15.40
2011,08,07,00,12,15.40
2011,08,07,00,13,15.40
2011,08,07,00,14,15.50
2011,08,07,00,15,15.50
2011,08,07,00,16,15.50
2011,08,07,00,17,15.60
2011,08,07,00,18,15.60
2011,08,07,00,19,15.60
2011,08,07,00,20,15.60
2011,08,07,00,21,15.60
2011,08,07,00,22,15.70
2011,08,07,00,23,15.70
2011,08,07,00,24,15.80
2011,08,07,00,25,15.80
2011,08,07,00,26,15.90
2011,08,07,00,27,15.90
2011,08,07,00,28,15.90
2011,08,07,00,29,15.90
2011,08,07,00,30,15.90
2011,08,07,00,31,16.00
2011,08,07,00,32,15.90
2011,08,07,00,33,15.90
2011,08,07,00,34,15.90
2011,08,07,00,35,15.90
2011,08,07,00,36,15.90
2011,08,07,00,37,15.90
2011,08,07,00,38,15.80
2011,08,07,00,39,15.80
2011,08,07,00,40,15.80
2011,08,07,00,41,15.80
2011,08,07,00,42,15.80
2011,08,07,00,43,15.80
2011,08,07,00,44,15.80
2011,08,07,00,45,15.90
2011,08,07,00,46,15.90
2011,08,07,00,47,15.90
2011,08,07,00,48,16.00
2011,08,07,00,49,16.00
2011,08,07,00,50,16.00
2011,08,07,00,51,16.10
2011,08,07,00,52,16.10
2011,08,07,00,53,16.10
2011,08,07,00,54,16.10
2011,08,07,00,55,16.20
2011,08,07,00,56,16.20
2011,08,07,00,57,16.20
2011,08,07,00,58,16.20
2011,08,07,00,59,16.10
2011,08,07,01,00,16.10
2011,08,07,01,01,16.10
2011,08,07,01,02,16.10
2011,08,07,01,03,16.00
2011,08,07,01,04,16.00
2011,08,07,01,05,15.90
2011,08,07,01,06,15.90
2011,08,07,01,07,15.90
2011,08,07,01,08,15.80
2011,08,07,01,09,15.80
2011,08,07,01,10,15.70
2011,08,07,01,11,15.70
2011,08,07,01,12,15.60
2011,08,07,01,13,15.60
2011,08,07,01,14,15.50
2011,08,07,01,15,15.50
2011,08,07,01,16,15.40
2011,08,07,01,17,15.40
2011,08,07,01,18,15.30
2011,08,07,01,19,15.30
2011,08,07,01,20,15.20
2011,08,07,01,21,15.20
2011,08,07,01,22,15.10
2011,08,07,01,23,15.10
2011,08,07,01,24,15.00
2011,08,07,01,25,15.00
2011,08,07,01,26,14.90
2011,08,07,01,27,14.80
2011,08,07,01,28,14.80
2011,08,07,01,29,14.80
2011,08,07,01,30,14.70
2011,08,07,01,31,14.60
2011,08,07,01,32,14.60
2011,08,07,01,33,14.60
2011,08,07,01,34,14.50
2011,08,07,01,35,14.50
2011,08,07,01,36,14.40
2011,08,07,01,37,14.40
2011,08,07,01,38,14.30
2011,08,07,01,39,14.30
2011,08,07,01,40,14.30
2011,08,07,01,41,14.30
2011,08,07,01,42,14.20
2011,08,07,01,43,14.20
2011,08,07,01,44,14.20
2011,08,07,01,45,14.10
2011,08,07,01,46,14.10
2011,08,07,01,47,14.10
2011,08,07,01,48,14.00
2011,08,07,01,49,14.00
2011,08,07,01,50,13.90
2011,08,07,01,51,13.90
2011,08,07,01,52,13.90
2011,08,07,01,53,13.80
2011,08,07,01,54,13.80
2011,08,07,01,55,13.80
2011,08,07,01,56,13.80
2011,08,07,01,57,13.80
2011,08,07,01,58,13.70
2011,08,07,01,59,13.70
2011,08,07,02,00,13.70
2011,08,07,02,01,13.70
2011,08,07,02,02,13.70
2011,08,07,02,03,13.60
2011,08,07,02,04,13.60
2011,08,07,02,05,13.60
2011,08,07,02,06,13.50
2011,08,07,02,07,13.50
2011,08,07,02,08,13.50
2011,08,07,02,09,13.50
2011,08,07,02,10,13.50
2011,08,07,02,11,13.40
2011,08,07,02,12,13.40
2011,08,07,02,13,13.40
2011,08,07,02,14,13.40
2011,08,07,02,15,13.40
2011,08,07,02,16,13.40
2011,08,07,02,17,13.40
2011,08,07,02,18,13.30
2011,08,07,02,19,13.30
2011,08,07,02,20,13.30
2011,08,07,02,21,13.30
2011,08,07,02,22,13.30
2011,08,07,02,23,13.30
2011,08,07,02,24,13.30
2011,08,07,02,25,13.30
2011,08,07,02,26,13.30
2011,08,07,02,27,13.30
2011,08,07,02,28,13.20
2011,08,07,02,29,13.20
2011,08,07,02,30,13.20
2011,08,07,02,31,13.20
2011,08,07,02,32,13.20
2011,08,07,02,33,13.20
2011,08,07,02,34,13.20
2011,08,07,02,35,13.10
2011,08,07,02,36,13.10
2011,08,07,02,37,13.10
2011,08,07,02,38,13.10
2011,08,07,02,39,13.10
2011,08,07,02,40,13.00
2011,08,07,02,41,13.00
2011,08,07,02,42,13.00
2011,08,07,02,43,13.00
2011,08,07,02,44,12.90
2011,08,07,02,45,12.90
2011,08,07,02,46,12.90
2011,08,07,02,47,12.90
2011,08,07,02,48,12.90
2011,08,07,02,49,12.90
2011,08,07,02,50,12.90
2011,08,07,02,51,12.80
2011,08,07,02,52,12.80
2011,08,07,02,53,12.80
2011,08,07,02,54,12.80
2011,08,07,02,55,12.80
2011,08,07,02,56,12.80
2011,08,07,02,57,12.70
2011,08,07,02,58,12.70
2011,08,07,02,59,12.70
2011,08,07,03,00,12.70
2011,08,07,03,06,12.60
2011,08,07,03,07,12.60
2011,08,07,03,08,12.60
2011,08,07,03,09,12.60
2011,08,07,03,10,12.60
2011,08,07,03,11,12.60
2011,08,07,03,12,12.60
2011,08,07,03,13,12.60
2011,08,07,03,14,12.50
2011,08,07,03,15,12.50
2011,08,07,03,16,12.50
2011,08,07,03,17,12.50
2011,08,07,03,18,12.50
2011,08,07,03,19,12.50
2011,08,07,03,20,12.50
2011,08,07,03,21,12.50
2011,08,07,03,22,12.50
2011,08,07,03,23,12.40
2011,08,07,03,24,12.40
2011,08,07,03,25,12.40
2011,08,07,03,26,12.40
2011,08,07,03,27,12.40
2011,08,07,03,28,12.40
2011,08,07,03,29,12.40
2011,08,07,03,30,12.30
2011,08,07,03,31,12.30
2011,08,07,03,32,12.30
2011,08,07,03,33,12.30
2011,08,07,03,34,12.30
2011,08,07,03,35,12.30
2011,08,07,03,36,12.20
2011,08,07,03,37,12.20
2011,08,07,03,38,12.20
2011,08,07,03,39,12.20
2011,08,07,03,40,12.20
2011,08,07,03,41,12.10
2011,08,07,03,42,12.10
2011,08,07,03,43,12.10
2011,08,07,03,44,12.10
2011,08,07,03,45,12.10
2011,08,07,03,46,12.00
2011,08,07,03,47,12.00
2011,08,07,03,48,12.00
2011,08,07,03,49,12.00
2011,08,07,03,50,12.00
2011,08,07,03,51,11.90
2011,08,07,03,52,11.90
2011,08,07,03,53,11.90
2011,08,07,03,54,11.90
2011,08,07,03,55,11.90
2011,08,07,03,56,11.90
2011,08,07,03,57,11.90
2011,08,07,03,58,11.90
2011,08,07,03,59,11.90
2011,08,07,04,00,11.90
2011,08,07,04,01,11.90
2011,08,07,04,02,11.80
2011,08,07,04,03,11.80
2011,08,07,04,04,11.80
2011,08,07,04,05,11.80
2011,08,07,04,06,11.80
2011,08,07,04,07,11.80
2011,08,07,04,08,11.80
2011,08,07,04,09,11.70
2011,08,07,04,10,11.70
2011,08,07,04,11,11.70
2011,08,07,04,12,11.70
2011,08,07,04,13,11.70
2011,08,07,04,14,11.70
2011,08,07,04,15,11.70
2011,08,07,04,16,11.70
2011,08,07,04,17,11.70
2011,08,07,04,18,11.70
2011,08,07,04,19,11.70
2011,08,07,04,20,11.70
2011,08,07,04,21,11.70
2011,08,07,04,22,11.70
2011,08,07,04,23,11.60
2011,08,07,04,24,11.60
2011,08,07,04,25,11.60
2011,08,07,04,26,11.60
2011,08,07,04,27,11.60
2011,08,07,04,28,11.60
2011,08,07,04,29,11.60
2011,08,07,04,30,11.60
2011,08,07,04,31,11.60
2011,08,07,04,32,11.60
2011,08,07,04,33,11.60
2011,08,07,04,34,11.60
2011,08,07,04,35,11.60
2011,08,07,04,36,11.60
2011,08,07,04,37,11.60
2011,08,07,04,38,11.60
2011,08,07,04,39,11.60
2011,08,07,04,40,11.60
2011,08,07,04,41,11.60
2011,08,07,04,42,11.60
2011,08,07,04,43,11.60
2011,08,07,04,44,11.60
2011,08,07,04,45,11.60
2011,08,07,04,46,11.60
2011,08,07,04,47,11.60
2011,08,07,04,48,11.50
2011,08,07,04,49,11.50
2011,08,07,04,50,11.50
2011,08,07,04,51,11.50
2011,08,07,04,52,11.50
2011,08,07,04,53,11.50
2011,08,07,04,54,11.50
2011,08,07,04,55,11.50
2011,08,07,04,56,11.50
2011,08,07,04,57,11.50
2011,08,07,04,58,11.50
2011,08,07,04,59,11.50
2011,08,07,05,00,11.50
2011,08,07,05,01,11.40
2011,08,07,05,02,11.40
2011,08,07,05,03,11.40
2011,08,07,05,04,11.40
2011,08,07,05,05,11.40
2011,08,07,05,06,11.40
2011,08,07,05,07,11.40
2011,08,07,05,08,11.40
2011,08,07,05,09,11.40
2011,08,07,05,10,11.40
2011,08,07,05,11,11.40
2011,08,07,05,12,11.40
2011,08,07,05,13,11.40
2011,08,07,05,14,11.30
2011,08,07,05,15,11.30
2011,08,07,05,16,11.30
2011,08,07,05,17,11.30
2011,08,07,05,18,11.30
2011,08,07,05,19,11.30
2011,08,07,05,20,11.30
2011,08,07,05,21,11.30
2011,08,07,05,22,11.30
2011,08,07,05,23,11.30
2011,08,07,05,24,11.30
2011,08,07,05,25,11.30
2011,08,07,05,26,11.30
2011,08,07,05,27,11.30
2011,08,07,05,28,11.30
2011,08,07,05,29,11.30
2011,08,07,05,30,11.30
2011,08,07,05,31,11.20
2011,08,07,05,32,11.20
2011,08,07,05,33,11.20
2011,08,07,05,34,11.20
2011,08,07,05,35,11.20
2011,08,07,05,36,11.20
2011,08,07,05,37,11.20
2011,08,07,05,38,11.20
2011,08,07,05,39,11.10
2011,08,07,05,40,11.10
2011,08,07,05,41,11.10
2011,08,07,05,42,11.10
2011,08,07,05,43,11.10
2011,08,07,05,44,11.10
2011,08,07,05,45,11.10
2011,08,07,05,46,11.10
2011,08,07,05,47,11.10
2011,08,07,05,48,11.10
2011,08,07,05,49,11.00
2011,08,07,05,50,11.00
2011,08,07,05,51,11.00
2011,08,07,05,52,11.00
2011,08,07,05,53,11.00
2011,08,07,05,54,11.00
2011,08,07,05,55,11.00
2011,08,07,05,56,11.00
2011,08,07,05,57,11.00
2011,08,07,05,58,10.90
2011,08,07,05,59,10.90
2011,08,07,06,00,10.90
2011,08,07,06,01,10.90
2011,08,07,06,02,10.90
2011,08,07,06,03,10.90
2011,08,07,06,04,10.90
2011,08,07,06,05,10.90
2011,08,07,06,06,10.90
2011,08,07,06,07,10.90
2011,08,07,06,08,10.90
2011,08,07,06,09,10.90
2011,08,07,06,10,10.90
2011,08,07,06,11,10.90
2011,08,07,06,12,10.90
2011,08,07,06,13,10.90
2011,08,07,06,14,10.90
2011,08,07,06,15,10.90
2011,08,07,06,16,10.90
2011,08,07,06,17,10.90
2011,08,07,06,18,10.90
2011,08,07,06,19,10.90
2011,08,07,06,20,10.90
2011,08,07,06,21,10.90
2011,08,07,06,22,10.90
2011,08,07,06,23,10.90
2011,08,07,06,24,10.90
2011,08,07,06,25,10.90
2011,08,07,06,26,10.80
2011,08,07,06,27,10.90
2011,08,07,06,28,10.80
2011,08,07,06,29,10.80
2011,08,07,06,30,10.80
2011,08,07,06,31,10.90
2011,08,07,06,32,10.90
2011,08,07,06,33,10.90
2011,08,07,06,34,10.90
2011,08,07,06,35,10.90
2011,08,07,06,36,10.90
2011,08,07,06,37,10.90
2011,08,07,06,38,10.90
2011,08,07,06,39,10.90
2011,08,07,06,40,10.90
2011,08,07,06,41,10.90
2011,08,07,06,42,10.90
2011,08,07,06,43,10.90
2011,08,07,06,44,10.90
2011,08,07,06,45,10.90
2011,08,07,06,46,10.90
2011,08,07,06,47,10.90
2011,08,07,06,48,10.90
2011,08,07,06,49,10.90
2011,08,07,06,50,10.90
2011,08,07,06,51,10.90
2011,08,07,06,52,10.90
2011,08,07,06,53,10.90
2011,08,07,06,54,10.90
2011,08,07,06,55,11.00
2011,08,07,06,56,11.00
2011,08,07,06,57,11.00
2011,08,07,06,58,11.10
2011,08,07,06,59,11.10
2011,08,07,07,00,11.10
2011,08,07,07,01,11.10
2011,08,07,07,02,11.10
2011,08,07,07,03,11.10
2011,08,07,07,04,11.20
2011,08,07,07,05,11.20
2011,08,07,07,06,11.20
2011,08,07,07,07,11.20
2011,08,07,07,08,11.20
2011,08,07,07,09,11.20
2011,08,07,07,10,11.30
2011,08,07,07,11,11.30
2011,08,07,07,12,11.30
2011,08,07,07,13,11.30
2011,08,07,07,14,11.30
2011,08,07,07,15,11.40
2011,08,07,07,16,11.40
2011,08,07,07,17,11.40
2011,08,07,07,18,11.50
2011,08,07,07,19,11.50
2011,08,07,07,20,11.60
2011,08,07,07,21,11.60
2011,08,07,07,22,11.60
2011,08,07,07,23,11.70
2011,08,07,07,24,11.70
2011,08,07,07,25,11.80
2011,08,07,07,26,11.80
2011,08,07,07,27,11.90
2011,08,07,07,28,11.90
2011,08,07,07,29,12.00
2011,08,07,07,30,12.10
2011,08,07,07,31,12.10
2011,08,07,07,32,12.20
2011,08,07,07,33,12.30
2011,08,07,07,34,12.40
2011,08,07,07,35,12.50
2011,08,07,07,36,12.70
2011,08,07,07,37,12.70
2011,08,07,07,38,12.80
2011,08,07,07,39,12.90
2011,08,07,07,40,13.00
2011,08,07,07,41,13.10
2011,08,07,07,42,13.20
2011,08,07,07,43,13.30
2011,08,07,07,44,13.30
2011,08,07,07,45,13.40
2011,08,07,07,46,13.40
2011,08,07,07,47,13.50
2011,08,07,07,48,13.50
2011,08,07,07,49,13.60
2011,08,07,07,50,13.70
2011,08,07,07,51,13.70
2011,08,07,07,52,13.80
2011,08,07,07,53,13.80
2011,08,07,07,54,13.90
2011,08,07,07,55,13.90
2011,08,07,07,56,13.90
2011,08,07,07,57,14.00
2011,08,07,07,58,14.00
2011,08,07,07,59,14.00
2011,08,07,08,00,14.10
2011,08,07,08,01,14.10
2011,08,07,08,02,14.20
2011,08,07,08,03,14.20
2011,08,07,08,04,14.30
2011,08,07,08,05,14.40
2011,08,07,08,06,14.40
2011,08,07,08,07,14.50
2011,08,07,08,08,14.60
2011,08,07,08,09,14.60
2011,08,07,08,10,14.70
2011,08,07,08,11,14.70
2011,08,07,08,12,14.70
2011,08,07,08,13,14.70
2011,08,07,08,14,14.80
2011,08,07,08,15,14.80
2011,08,07,08,16,14.80
2011,08,07,08,17,14.80
2011,08,07,08,18,14.80
2011,08,07,08,19,14.90
2011,08,07,08,20,14.90
2011,08,07,08,21,14.90
2011,08,07,08,22,15.00
2011,08,07,08,23,15.00
2011,08,07,08,24,15.10
2011,08,07,08,25,15.10
2011,08,07,08,26,15.10
2011,08,07,08,27,15.10
2011,08,07,08,28,15.10
2011,08,07,08,29,15.10
2011,08,07,08,30,15.20
2011,08,07,08,31,15.20
2011,08,07,08,32,15.20
2011,08,07,08,33,15.20
2011,08,07,08,34,15.20
2011,08,07,08,35,15.20
2011,08,07,08,36,15.20
2011,08,07,08,37,15.30
2011,08,07,08,38,15.30
2011,08,07,08,39,15.30
2011,08,07,08,40,15.30
2011,08,07,08,41,15.30
2011,08,07,08,42,15.30
2011,08,07,08,43,15.30
2011,08,07,08,44,15.30
2011,08,07,08,45,15.30
2011,08,07,08,46,15.30
2011,08,07,08,47,15.30
2011,08,07,08,48,15.40
2011,08,07,08,49,15.40
2011,08,07,08,50,15.50
2011,08,07,08,51,15.50
2011,08,07,08,52,15.60
2011,08,07,08,53,15.60
2011,08,07,08,54,15.60
2011,08,07,08,55,15.60
2011,08,07,08,56,15.60
2011,08,07,08,57,15.60
2011,08,07,08,58,15.60
2011,08,07,08,59,15.70
2011,08,07,09,00,15.70
2011,08,07,09,01,15.70
2011,08,07,09,02,15.70
2011,08,07,09,03,15.70
2011,08,07,09,04,15.70
2011,08,07,09,05,15.70
2011,08,07,09,06,15.70
2011,08,07,09,07,15.80
2011,08,07,09,08,15.80
2011,08,07,09,09,15.90
2011,08,07,09,10,15.90
2011,08,07,09,11,15.90
2011,08,07,09,12,15.90
2011,08,07,09,13,16.00
2011,08,07,09,14,16.00
2011,08,07,09,15,16.00
2011,08,07,09,16,16.00
2011,08,07,09,17,16.00
2011,08,07,09,18,16.10
2011,08,07,09,19,16.10
2011,08,07,09,20,16.10
2011,08,07,09,21,16.10
2011,08,07,09,22,16.10
2011,08,07,09,23,16.20
2011,08,07,09,24,16.20
2011,08,07,09,25,16.20
2011,08,07,09,26,16.10
2011,08,07,09,27,16.10
2011,08,07,09,28,16.10
2011,08,07,09,29,16.20
2011,08,07,09,30,16.20
2011,08,07,09,31,16.20
2011,08,07,09,32,16.20
2011,08,07,09,33,16.30
2011,08,07,09,34,16.30
2011,08,07,09,35,16.30
2011,08,07,09,36,16.30
2011,08,07,09,37,16.40
2011,08,07,09,38,16.40
2011,08,07,09,39,16.40
2011,08,07,09,40,16.40
2011,08,07,09,41,16.40
2011,08,07,09,42,16.40
2011,08,07,09,43,16.40
2011,08,07,09,44,16.40
2011,08,07,09,45,16.40
2011,08,07,09,46,16.30
2011,08,07,09,47,16.30
2011,08,07,09,48,16.30
2011,08,07,09,49,16.20
2011,08,07,09,50,16.20
2011,08,07,09,51,16.20
2011,08,07,09,52,16.20
2011,08,07,09,53,16.20
2011,08,07,09,54,16.20
2011,08,07,09,55,16.30
2011,08,07,09,56,16.30
2011,08,07,09,57,16.40
2011,08,07,09,58,16.40
2011,08,07,09,59,16.40
2011,08,07,10,00,16.50
2011,08,07,10,01,16.40
2011,08,07,10,02,16.40
2011,08,07,10,03,16.40
2011,08,07,10,04,16.40
2011,08,07,10,05,16.40
2011,08,07,10,06,16.40
2011,08,07,10,07,16.40
2011,08,07,10,08,16.50
2011,08,07,10,09,16.50
2011,08,07,10,10,16.50
2011,08,07,10,11,16.60
2011,08,07,10,12,16.70
2011,08,07,10,13,16.70
2011,08,07,10,14,16.70
2011,08,07,10,15,16.70
2011,08,07,10,16,16.70
2011,08,07,10,17,16.70
2011,08,07,10,18,16.70
2011,08,07,10,19,16.70
2011,08,07,10,20,16.60
2011,08,07,10,21,16.60
2011,08,07,10,22,16.50
2011,08,07,10,23,16.50
2011,08,07,10,24,16.50
2011,08,07,10,25,16.50
2011,08,07,10,26,16.50
2011,08,07,10,27,16.50
2011,08,07,10,28,16.50
2011,08,07,10,29,16.60
2011,08,07,10,30,16.60
2011,08,07,10,31,16.70
2011,08,07,10,32,16.70
2011,08,07,10,33,16.70
2011,08,07,10,34,16.70
2011,08,07,10,35,16.80
2011,08,07,10,36,16.80
2011,08,07,10,37,16.80
2011,08,07,10,38,16.90
2011,08,07,10,39,16.90
2011,08,07,10,40,16.90
2011,08,07,10,41,16.90
2011,08,07,10,42,16.90
2011,08,07,10,43,16.90
2011,08,07,10,44,16.90
2011,08,07,10,45,16.80
2011,08,07,10,46,16.80
2011,08,07,10,47,16.90
2011,08,07,10,48,16.90
2011,08,07,10,49,16.90
2011,08,07,10,50,16.90
2011,08,07,10,51,16.80
2011,08,07,10,52,16.90
2011,08,07,10,53,16.90
2011,08,07,10,54,17.00
2011,08,07,10,55,17.10
2011,08,07,10,56,17.10
2011,08,07,10,57,17.10
2011,08,07,10,58,17.20
2011,08,07,10,59,17.30
2011,08,07,11,00,17.30
2011,08,07,11,01,17.30
2011,08,07,11,02,17.40
2011,08,07,11,03,17.40
2011,08,07,11,04,17.40
2011,08,07,11,05,17.40
2011,08,07,11,06,17.40
2011,08,07,11,07,17.50
2011,08,07,11,08,17.50
2011,08,07,11,09,17.60
2011,08,07,11,10,17.60
2011,08,07,11,11,17.60
2011,08,07,11,12,17.50
2011,08,07,11,13,17.50
2011,08,07,11,14,17.60
2011,08,07,11,15,17.60
2011,08,07,11,16,17.60
2011,08,07,11,17,17.60
2011,08,07,11,18,17.60
2011,08,07,11,19,17.60
2011,08,07,11,20,17.60
2011,08,07,11,21,17.50
2011,08,07,11,22,17.40
2011,08,07,11,23,17.40
2011,08,07,11,24,17.50
2011,08,07,11,25,17.50
2011,08,07,11,26,17.60
2011,08,07,11,27,17.60
2011,08,07,11,28,17.70
2011,08,07,11,29,17.70
2011,08,07,11,30,17.70
2011,08,07,11,31,17.80
2011,08,07,11,32,17.80
2011,08,07,11,33,17.80
2011,08,07,11,34,17.80
2011,08,07,11,35,17.90
2011,08,07,11,36,18.00
2011,08,07,11,37,18.10
2011,08,07,11,38,18.10
2011,08,07,11,39,18.10
2011,08,07,11,40,18.10
2011,08,07,11,41,18.10
2011,08,07,11,42,18.10
2011,08,07,11,43,18.10
2011,08,07,11,44,18.00
2011,08,07,11,45,18.00
2011,08,07,11,46,17.90
2011,08,07,11,47,17.80
2011,08,07,11,48,17.80
2011,08,07,11,49,17.80
2011,08,07,11,50,17.80
2011,08,07,11,51,17.90
2011,08,07,11,52,17.90
2011,08,07,11,53,17.90
2011,08,07,11,54,17.90
2011,08,07,11,55,17.90
2011,08,07,11,56,18.00
2011,08,07,11,57,18.00
2011,08,07,11,58,18.00
2011,08,07,11,59,18.00
2011,08,07,12,00,18.00
2011,08,07,12,01,18.10
2011,08,07,12,02,18.10
2011,08,07,12,03,18.20
2011,08,07,12,04,18.30
2011,08,07,12,05,18.50
2011,08,07,12,06,18.50
2011,08,07,12,07,18.50
2011,08,07,12,08,18.40
2011,08,07,12,09,18.40
2011,08,07,12,10,18.30
2011,08,07,12,11,18.30
2011,08,07,12,12,18.30
2011,08,07,12,13,18.30
2011,08,07,12,14,18.30
2011,08,07,12,15,18.40
2011,08,07,12,16,18.40
2011,08,07,12,17,18.40
2011,08,07,12,18,18.40
2011,08,07,12,19,18.30
2011,08,07,12,20,18.30
2011,08,07,12,21,18.30
2011,08,07,12,22,18.30
2011,08,07,12,23,18.20
2011,08,07,12,24,18.20
2011,08,07,12,25,18.20
2011,08,07,12,26,18.20
2011,08,07,12,27,18.30
2011,08,07,12,28,18.30
2011,08,07,12,29,18.40
2011,08,07,12,30,18.40
2011,08,07,12,31,18.40
2011,08,07,12,32,18.50
2011,08,07,12,33,18.60
2011,08,07,12,34,18.60
2011,08,07,12,35,18.60
2011,08,07,12,36,18.60
2011,08,07,12,37,18.50
2011,08,07,12,38,18.50
2011,08,07,12,39,18.50
2011,08,07,12,40,18.50
2011,08,07,12,41,18.60
2011,08,07,12,42,18.60
2011,08,07,12,43,18.60
2011,08,07,12,44,18.60
2011,08,07,12,45,18.60
2011,08,07,12,46,18.50
2011,08,07,12,47,18.50
2011,08,07,12,48,18.60
2011,08,07,12,49,18.70
2011,08,07,12,50,18.70
2011,08,07,12,51,18.70
2011,08,07,12,52,18.70
2011,08,07,12,53,18.70
2011,08,07,12,54,18.70
2011,08,07,12,55,18.70
2011,08,07,12,56,18.70
2011,08,07,12,57,18.70
2011,08,07,12,58,18.70
2011,08,07,12,59,18.70
2011,08,07,13,00,18.70
2011,08,07,13,01,18.80
2011,08,07,13,02,18.70
2011,08,07,13,03,18.60
2011,08,07,13,04,18.60
2011,08,07,13,05,18.60
2011,08,07,13,06,18.60
2011,08,07,13,07,18.70
2011,08,07,13,08,18.70
2011,08,07,13,09,18.80
2011,08,07,13,10,18.80
2011,08,07,13,11,18.90
2011,08,07,13,12,19.00
2011,08,07,13,13,19.10
2011,08,07,13,14,19.20
2011,08,07,13,15,19.40
2011,08,07,13,16,19.50
2011,08,07,13,17,19.60
2011,08,07,13,18,19.60
2011,08,07,13,19,19.60
2011,08,07,13,20,19.60
2011,08,07,13,21,19.60
2011,08,07,13,22,19.60
2011,08,07,13,23,19.50
2011,08,07,13,24,19.50
2011,08,07,13,25,19.50
2011,08,07,13,26,19.40
2011,08,07,13,27,19.30
2011,08,07,13,28,19.20
2011,08,07,13,29,19.20
2011,08,07,13,30,19.20
2011,08,07,13,31,19.20
2011,08,07,13,32,19.20
2011,08,07,13,33,19.20
2011,08,07,13,34,19.20
2011,08,07,13,35,19.20
2011,08,07,13,36,19.20
2011,08,07,13,37,19.30
2011,08,07,13,38,19.30
2011,08,07,13,39,19.40
2011,08,07,13,40,19.40
2011,08,07,13,41,19.50
2011,08,07,13,42,19.60
2011,08,07,13,43,19.60
2011,08,07,13,44,19.60
2011,08,07,13,45,19.60
2011,08,07,13,46,19.60
2011,08,07,13,47,19.60
2011,08,07,13,48,19.60
2011,08,07,13,49,19.60
2011,08,07,13,50,19.60
2011,08,07,13,51,19.60
2011,08,07,13,52,19.60
2011,08,07,13,53,19.60
2011,08,07,13,54,19.60
2011,08,07,13,55,19.60
2011,08,07,13,56,19.60
2011,08,07,13,57,19.70
2011,08,07,13,58,19.80
2011,08,07,13,59,19.90
2011,08,07,14,00,20.00
2011,08,07,14,01,20.00
2011,08,07,14,02,20.00
2011,08,07,14,03,19.90
2011,08,07,14,04,19.90
2011,08,07,14,05,19.90
2011,08,07,14,06,20.00
2011,08,07,14,07,20.00
2011,08,07,14,08,20.00
2011,08,07,14,09,20.10
2011,08,07,14,10,20.10
2011,08,07,14,11,20.10
2011,08,07,14,12,20.10
2011,08,07,14,13,20.10
2011,08,07,14,14,20.00
2011,08,07,14,15,20.00
2011,08,07,14,16,20.00
2011,08,07,14,17,20.10
2011,08,07,14,18,20.10
2011,08,07,14,19,20.10
2011,08,07,14,20,20.20
2011,08,07,14,21,20.20
2011,08,07,14,22,20.30
2011,08,07,14,23,20.30
2011,08,07,14,24,20.30
2011,08,07,14,25,20.30
2011,08,07,14,26,20.30
2011,08,07,14,27,20.30
2011,08,07,14,28,20.30
2011,08,07,14,29,20.30
2011,08,07,14,30,20.30
2011,08,07,14,31,20.30
2011,08,07,14,32,20.40
2011,08,07,14,33,20.40
2011,08,07,14,34,20.40
2011,08,07,14,35,20.50
2011,08,07,14,36,20.60
2011,08,07,14,37,20.70
2011,08,07,14,38,20.80
2011,08,07,14,39,20.80
2011,08,07,14,40,20.80
2011,08,07,14,41,20.80
2011,08,07,14,42,20.80
2011,08,07,14,43,20.90
2011,08,07,14,44,21.10
2011,08,07,14,45,21.10
2011,08,07,14,46,21.10
2011,08,07,14,47,21.10
2011,08,07,14,48,21.10
2011,08,07,14,49,21.10
2011,08,07,14,50,21.10
2011,08,07,14,51,21.10
2011,08,07,14,52,21.10
2011,08,07,14,53,21.10
2011,08,07,14,54,21.20
2011,08,07,14,55,21.30
2011,08,07,14,56,21.40
2011,08,07,14,57,21.50
2011,08,07,14,58,21.50
2011,08,07,14,59,21.40
2011,08,07,15,00,21.40
2011,08,07,15,01,21.30
2011,08,07,15,02,21.30
2011,08,07,15,03,21.30
2011,08,07,15,04,21.30
2011,08,07,15,05,21.30
2011,08,07,15,06,21.30
2011,08,07,15,07,21.30
2011,08,07,15,08,21.20
2011,08,07,15,09,21.20
2011,08,07,15,10,21.10
2011,08,07,15,11,21.10
2011,08,07,15,12,21.20
2011,08,07,15,13,21.30
2011,08,07,15,14,21.30
2011,08,07,15,15,21.40
2011,08,07,15,16,21.40
2011,08,07,15,17,21.40
2011,08,07,15,18,21.40
2011,08,07,15,19,21.30
2011,08,07,15,20,21.30
2011,08,07,15,21,21.30
2011,08,07,15,22,21.30
2011,08,07,15,23,21.40
2011,08,07,15,24,21.50
2011,08,07,15,25,21.50
2011,08,07,15,26,21.60
2011,08,07,15,27,21.60
2011,08,07,15,28,21.60
2011,08,07,15,29,21.70
2011,08,07,15,30,21.60
2011,08,07,15,31,21.50
2011,08,07,15,32,21.50
2011,08,07,15,33,21.40
2011,08,07,15,34,21.50
2011,08,07,15,35,21.50
2011,08,07,15,36,21.60
2011,08,07,15,37,21.70
2011,08,07,15,38,21.80
2011,08,07,15,39,21.90
2011,08,07,15,40,21.90
2011,08,07,15,41,21.90
2011,08,07,15,42,22.00
2011,08,07,15,43,22.00
2011,08,07,15,44,22.00
2011,08,07,15,45,22.10
2011,08,07,15,46,22.00
2011,08,07,15,47,21.80
2011,08,07,15,48,21.60
2011,08,07,15,49,21.50
2011,08,07,15,50,21.40
2011,08,07,15,51,21.30
2011,08,07,15,52,21.30
2011,08,07,15,53,21.30
2011,08,07,15,54,21.40
2011,08,07,15,55,21.50
2011,08,07,15,56,21.60
2011,08,07,15,57,21.60
2011,08,07,15,58,21.70
2011,08,07,15,59,21.80
2011,08,07,16,00,21.90
2011,08,07,16,01,21.90
2011,08,07,16,02,21.90
2011,08,07,16,03,21.80
2011,08,07,16,04,21.80
2011,08,07,16,05,21.90
2011,08,07,16,06,22.00
2011,08,07,16,07,22.00
2011,08,07,16,08,21.90
2011,08,07,16,09,21.90
2011,08,07,16,10,21.90
2011,08,07,16,11,21.80
2011,08,07,16,12,21.80
2011,08,07,16,13,21.80
2011,08,07,16,14,21.80
2011,08,07,16,15,21.80
2011,08,07,16,16,21.90
2011,08,07,16,17,22.00
2011,08,07,16,18,22.10
2011,08,07,16,19,22.10
2011,08,07,16,20,22.00
2011,08,07,16,21,22.10
2011,08,07,16,22,22.10
2011,08,07,16,23,22.10
2011,08,07,16,24,22.00
2011,08,07,16,25,21.90
2011,08,07,16,26,21.80
2011,08,07,16,27,21.80
2011,08,07,16,28,21.80
2011,08,07,16,29,21.80
2011,08,07,16,30,21.90
2011,08,07,16,31,22.00
2011,08,07,16,32,22.00
2011,08,07,16,33,22.00
2011,08,07,16,34,22.00
2011,08,07,16,35,22.00
2011,08,07,16,36,21.90
2011,08,07,16,37,21.90
2011,08,07,16,38,21.90
2011,08,07,16,39,21.80
2011,08,07,16,40,21.80
2011,08,07,16,41,21.90
2011,08,07,16,42,22.00
2011,08,07,16,43,22.00
2011,08,07,16,44,21.90
2011,08,07,16,45,21.80
2011,08,07,16,46,21.80
2011,08,07,16,47,21.80
2011,08,07,16,48,21.90
2011,08,07,16,49,21.90
2011,08,07,16,50,21.90
2011,08,07,16,51,22.00
2011,08,07,16,52,22.00
2011,08,07,16,53,22.10
2011,08,07,16,54,22.20
2011,08,07,16,55,22.30
2011,08,07,16,56,22.40
2011,08,07,16,57,22.50
2011,08,07,16,58,22.60
2011,08,07,16,59,22.70
2011,08,07,17,00,22.70
2011,08,07,17,01,22.70
2011,08,07,17,02,22.70
2011,08,07,17,03,22.70
2011,08,07,17,04,22.80
2011,08,07,17,05,22.80
2011,08,07,17,06,22.80
2011,08,07,17,07,22.80
2011,08,07,17,08,22.90
2011,08,07,17,09,22.90
2011,08,07,17,10,23.00
2011,08,07,17,11,23.10
2011,08,07,17,12,23.10
2011,08,07,17,13,23.20
2011,08,07,17,14,23.20
2011,08,07,17,15,23.30
2011,08,07,17,16,23.30
2011,08,07,17,17,23.40
2011,08,07,17,18,23.40
2011,08,07,17,19,23.30
2011,08,07,17,20,23.30
2011,08,07,17,21,23.30
2011,08,07,17,22,23.30
2011,08,07,17,23,23.30
2011,08,07,17,24,23.20